Weather Roundup
Issued by NWS Chicago, IL

Home | Current Version | Previous Version | Graphics & Text | Print | Product List | Glossary On
Versions: 1 2 3 4 5 6 7 8 9 10 11 12 13 14 15 16 17 18 19 20 21 22 23 24 25 26 27 28 29 30 31 32 33 34 35 36 37 38 39 40 41 42 43 44 45 46 47 48 49 50
913
NZUS59 KLOT 250708
HRRLOT

CHICAGO AREA WEATHER ROUNDUP
NATIONAL WEATHER SERVICE CHICAGO/ROMEOVILLE IL
200 AM CDT THU MAY 25 2017

NOTE: "FAIR" INDICATES FEW OR NO CLOUDS BELOW 12,000 FEET WITH NO
SIGNIFICANT WEATHER AND/OR OBSTRUCTIONS TO VISIBILITY.

* THESE STATIONS ARE NOT UNDER NWS QUALITY CONTROL. THEY ALSO MAY NOT
  REPORT WEATHER SUCH AS PRECIPITATION OR FOG.

ILZ005-006-012>014-019>023-250800-
NORTHEAST ILLINOIS

CITY           SKY/WX    TMP DP  RH WIND       PRES   REMARKS
OHARE          CLOUDY    56  50  80 N10       29.54F
MIDWAY         CLOUDY    55  51  86 N8        29.53F
AURORA         CLOUDY    56  52  86 N14       29.56F
LANSING*       CLOUDY    52  51  98 N6        29.53F
JOLIET*        CLOUDY    56  53  90 N5        29.54F
WAUKEGAN       CLOUDY    53  50  89 N7        29.56F
DUPAGE AIRPORT CLOUDY    55  52  89 N12       29.55F
WHEELING       CLOUDY    54  52  93 N10       29.56F
KANKAKEE*      CLOUDY    54  53  97 NW9       29.53F
MORRIS*        CLOUDY    55  52  87 CALM      29.54S
LEWIS AIRPORT* CLOUDY    54  53  95 N6        29.54F
NORTHERLY ISL    N/A     55  50  83 N12         N/A
$$

WIZ051-052-058>065-066-070>072-250800-
SOUTHEAST WISCONSIN

CITY           SKY/WX    TMP DP  RH WIND       PRES   REMARKS
MILWAUKEE      CLOUDY    55  51  86 N17G24    29.59S
KENOSHA*       CLOUDY    54  50  86 N10G17    29.57F
RACINE*        CLOUDY    52  48  86 N20G28    29.59F
WAUKESHA       CLOUDY    50  50 100 N9        29.61F
WEST BEND      CLOUDY    52  50  93 N8        29.62S
$$

INZ001>003-010>013-019-020-250800-
NORTHWEST INDIANA

CITY           SKY/WX    TMP DP  RH WIND       PRES   REMARKS
GARY*          CLOUDY    52  50  92 NW16G22   29.53F
MICHIGAN CITY* NOT AVBL
RENSSELAER*    NOT AVBL
VALPARAISO     CLOUDY    51  50  96 N12       29.49F FOG
$$

LMZ740>746-250800-
SOUTHERN LAKE MICHIGAN

STATION/POSITION TIME  SKY/WX   TEMP WIND        PRES    VSBY
                                AIR  DIR/SP/G
                 (UTC)          (F)  (DEG/KT/KT) (MB)    (MI)
HARRISON CRIB    0640            52  350/ 25/ 28   N/A
BURNHAM HARBOR   0700            54  340/ 14       N/A
CALUMET HARBOR   0642            52  330/ 12/ 17  999.8F
BURNS HARBOR     0640            49  340/ 18/ 20  999.7F
MICHIGAN CITY    0640            50  340/ 21/ 22   N/A
$$

ABBREVIATIONS USED IN REMARKS
   TC - TEMPERATURE IN CELSIUS
  WCI - WIND CHILL INDEX
   HX - HEAT INDEX
  VSB - VISIBILITY
$$




USA.gov is the U.S. government's official web portal to all federal, state and local government web resources and services.